Weather History for Needles, CA

Change the Weather History Date:

Saturday, November 12, 2011

  Actual Average Record
Temperature  
Mean Temperature 57 °F -  
Max Temperature 66 °F 75 °F 89 °F (1973)
Min Temperature 48 °F 51 °F 32 °F (1950)
Degree Days  
Heating Degree Days 8    
Growing Degree Days 7 (Base 50)    
Moisture  
Dew Point 34 °F    
Average Humidity 43    
Maximum Humidity 54    
Minimum Humidity 29    
Precipitation  
Precipitation 0.00 in - - ()
Sea Level Pressure  
Sea Level Pressure 29.84 in    
Wind  
Wind Speed 3 mph (West)    
Max Wind Speed 8 mph    
Max Gust Speed -    
Visibility 10 miles    
Events      
Averages and records for this station are not official NWS values.
T = Trace of Precipitation, MM = Missing Value Source: NWS Daily Summary

Daily Weather History Graph

Daily Weather History Graph

Search for Another Location

Airport:

Trip Planner

Search our weather history database for the weather conditions in past years. The results will help you decide how hot, cold, wet, or windy it might be!

Date:

Astronomy

Nov. 12, 2011 Rise Set
Actual Time 6:09 AM PST 4:35 PM PST
Civil Twilight 5:42 AM PST 5:02 PM PST
Nautical Twilight 5:12 AM PST 5:32 PM PST
Astronomical Twilight 4:42 AM PST 6:02 PM PST
Moon 5:59 PM PST (11/12) 7:51 AM PST (11/12)
Length of Visible Light 11h 19m
Length of Day
10h 26m
Waning Gibbous, 96% of the Moon is Illuminated
Nov 12
Waning Gibbous
Nov 18
Last Quarter
Nov 24
New
Dec 2
First Quarter
Dec 10
Full

Hourly Weather History & Observations

Time (PST) Temp. Dew Point Humidity Pressure Visibility Wind Dir Wind Speed Gust Speed Precip Events Conditions
12:56 AM 53.1 °F 33.1 °F 47% 29.83 in 10.0 mi West 4.6 mph - N/A   Clear
1:56 AM 53.1 °F 34.0 °F 48% 29.83 in 10.0 mi Calm Calm - N/A   Clear
2:56 AM 51.1 °F 35.1 °F 54% 29.81 in 10.0 mi WNW 3.5 mph - N/A   Clear
3:56 AM 50.0 °F 34.0 °F 54% 29.81 in 10.0 mi West 4.6 mph - N/A   Clear
5:56 AM 48.9 °F 32.0 °F 52% 29.83 in 10.0 mi WNW 4.6 mph - N/A   Clear
6:56 AM 51.1 °F 33.1 °F 50% 29.85 in 10.0 mi Calm Calm - N/A   Partly Cloudy
7:56 AM 55.9 °F 33.1 °F 42% 29.86 in 10.0 mi Calm Calm - N/A   Clear
8:56 AM 57.9 °F 33.1 °F 39% 29.87 in 10.0 mi Calm Calm - N/A   Clear
9:56 AM 62.1 °F 32.0 °F 32% 29.87 in 10.0 mi NNE 3.5 mph - N/A   Mostly Cloudy
10:56 AM 62.1 °F 30.9 °F 31% 29.85 in 10.0 mi Calm Calm - N/A   Overcast
11:56 AM 64.0 °F 30.9 °F 29% 29.83 in 10.0 mi Calm Calm - N/A   Overcast
1:56 PM 66.0 °F 33.1 °F 29% 29.81 in 10.0 mi North 8.1 mph - N/A   Overcast
3:56 PM 64.0 °F 35.1 °F 34% 29.81 in 10.0 mi Calm Calm - N/A   Clear
4:56 PM 61.0 °F 36.0 °F 39% 29.80 in 10.0 mi WSW 3.5 mph - N/A   Clear
5:56 PM 57.0 °F 36.0 °F 45% 29.81 in 10.0 mi SW 5.8 mph - N/A   Clear
7:56 PM 55.9 °F 36.0 °F 47% 29.83 in 10.0 mi WNW 3.5 mph - N/A   Scattered Clouds
8:56 PM 57.9 °F 36.0 °F 44% 29.86 in 10.0 mi WSW 3.5 mph - N/A   Mostly Cloudy
9:56 PM 55.9 °F 37.0 °F 49% 29.85 in 10.0 mi SSE 3.5 mph - N/A   Overcast
10:56 PM 57.9 °F 37.0 °F 46% 29.86 in 10.0 mi SW 4.6 mph - N/A   Mostly Cloudy
11:56 PM 57.0 °F 39.0 °F 51% 29.86 in 10.0 mi NW 4.6 mph - 0.00 in   Mostly Cloudy